Location: Lancaster
(34.6980°N, 118.1360°W)
Time: 01:27:09
(UTC-08:00)

Tiangong 2 - Pass Details

Date: 13 November 2017
Orbit: 386 x 392 km, 42.8° (Epoch: 24 November)

Event Time Altitude Azimuth Distance (km) Brightness Sun altitude
Rises 17:23:11 0° 297° (WNW) 2,273 5.7 -7.5°
Reaches altitude 10° 17:25:16 10° 297° (WNW) 1,415 4.7 -8.0°
Maximum altitude 17:28:28 83° 209° (SSW) 393 1.1 -8.6°
Drops below altitude 10° 17:31:38 10° 121° (ESE) 1,405 3.5 -9.2°
Enters shadow 17:32:30 - 121° (ESE) 1,763 4.0 -9.4°
